User: anonymous   Login
Location: Darlington Observatory
(36.4817°N, 105.8156°W)
Time: 07:25:52
(UTC-06:00)
Language:

MOS 1 - Orbit

View from above orbital plane
View from above orbital plane
View from above satellite
View from above satellite

Ground track
Ground track

The orbit data is extracted from the following two-line orbital elements,

1 17527U 87018A   14297.81354446  .00000110  00000-0  10177-3 0  6622
2 17527 099.2301 280.5542 0009679 073.9127 349.2580 14.02316857414001
Epoch (UTC): 24 October 2014 19:31:30
Eccentricity: 0.0009679
inclination: 99.2301°
perigee height: 879 km
apogee height: 893 km
right ascension of ascending node: 280.5542°
argument of perigee: 73.9127°
revolutions per day: 14.02316857
mean anomaly at epoch: 349.2580°
orbit number at epoch: 41400

The dashed part of the orbit path shows where the satellite is in the earth's shadow,  

DLR